"Pseudo-MPEC" for P117TQ7

Created 2020 Oct 22 20:07:35 UT using Find_Orb

Click here for an explanation of pseudo-MPECs

 
 Astrometry: 
     P117TQ7  C2020 10 15Og?L%h+[_'it,AstrometryI('QVb5fTU@p?EboL=Dm6prYVS]BlF51
     P117TQ7  C2020 10 15DktKw+h2qBhkmajUVLUredacted;/K'u[Z:?W,=clickH[By@027F51
     P117TQ7  C2020 10 15-T];M/Kj5hereSQ,5MforgoA`L'#ObFN\0:texplanation=n1=cF51

Station data:
(F51) Pan-STARRS 1, Haleakala  (N20.707235 W156.255910)  US/Hawaii.
   Observers N. Primak, A. Schultz, S. Watters, J. Thiel, T. Goggia. Measurer
   PS1 Science Consortium. 1.8-m Ritchey-Chrétien + CCD.

Orbital elements:  P117TQ7
   Perihelion 2021 Mar 29.225616 +/- 124 TT =  5:24:53 (JD 2459302.725616)
Epoch 2020 Oct 16.0 TT = JDT 2459138.5   Earth MOID: 0.0332   Ve: 0.0715
M 180.73589544 +/- 120              (J2000 ecliptic)          AutoNEOCP
n   1.09157212 +/- 0.578            Peri.  151.31142 +/- 53
a   0.93418830 +/- 0.33             Node    53.69865 +/- 36
e   0.1514964 +/- 0.209             Incl.    3.85714 +/- 44
P   0.90/329.79d           H 25.9   G  0.15   U 12.4  SR
q 0.79266213 +/- 0.56    Q 1.07571447 +/- 16.8
From 3 observations 2020 Oct. 15 (76.5 min); mean residual 0".02
Residuals in arcseconds: 
201015 F51  .01-  .01-    201015 F51  .03+  .04+    201015 F51  .02-  .03-    

Ephemerides (geocentric):
Date (UTC) HH   RA              Dec         delta   r     elong  mag " sig PA
---- -- -- --  -------------   -----------  ------ ------ -----  --- ---- ---
2020 10 22 20  03 29 51.622   +00 10 07.02  .08866 1.0746 152.8 22.0  42d   0
2020 10 22 21  03 29 39.632   +00 10 16.62  .08860 1.0746 152.9 21.9  42d   0
2020 10 22 22  03 29 27.621   +00 10 26.28  .08855 1.0746 153.0 21.9  42d   0
2020 10 22 23  03 29 15.588   +00 10 36.00  .08849 1.0746 153.1 21.9  42d   0
2020 10 23 00  03 29 03.533   +00 10 45.78  .08844 1.0746 153.1 21.9  42d   0
2020 10 23 01  03 28 51.457   +00 10 55.63  .08838 1.0746 153.2 21.9  43d   0
2020 10 23 02  03 28 39.360   +00 11 05.54  .08833 1.0745 153.3 21.9  43d   0
2020 10 23 03  03 28 27.241   +00 11 15.52  .08827 1.0745 153.4 21.9  43d   0
2020 10 23 04  03 28 15.101   +00 11 25.55  .08822 1.0745 153.4 21.9  43d   0
2020 10 23 05  03 28 02.939   +00 11 35.66  .08816 1.0745 153.5 21.9  43d   0
2020 10 23 06  03 27 50.756   +00 11 45.82  .08811 1.0745 153.6 21.9  43d   0
2020 10 23 07  03 27 38.552   +00 11 56.05  .08805 1.0745 153.7 21.9  43d   0
2020 10 23 08  03 27 26.326   +00 12 06.34  .08800 1.0745 153.7 21.9  43d   0
2020 10 23 09  03 27 14.079   +00 12 16.70  .08795 1.0745 153.8 21.9  43d   0
2020 10 23 10  03 27 01.811   +00 12 27.12  .08789 1.0744 153.9 21.9  43d   0
2020 10 23 11  03 26 49.521   +00 12 37.61  .08784 1.0744 154.0 21.9  43d   0
2020 10 23 12  03 26 37.211   +00 12 48.16  .08778 1.0744 154.1 21.9  44d   0
2020 10 23 13  03 26 24.878   +00 12 58.77  .08773 1.0744 154.1 21.9  44d   0
2020 10 23 14  03 26 12.525   +00 13 09.45  .08768 1.0744 154.2 21.9  44d   0
2020 10 23 15  03 26 00.151   +00 13 20.19  .08762 1.0744 154.3 21.9  44d   0
2020 10 23 16  03 25 47.755   +00 13 31.00  .08757 1.0744 154.4 21.9  44d   0
2020 10 23 17  03 25 35.339   +00 13 41.88  .08752 1.0744 154.4 21.9  44d   0
2020 10 23 18  03 25 22.901   +00 13 52.82  .08747 1.0743 154.5 21.9  44d   0
2020 10 23 19  03 25 10.442   +00 14 03.82  .08741 1.0743 154.6 21.9  44d   0
2020 10 23 20  03 24 57.962   +00 14 14.89  .08736 1.0743 154.7 21.9  44d   0
2020 10 23 21  03 24 45.461   +00 14 26.02  .08731 1.0743 154.7 21.9  44d   0
2020 10 23 22  03 24 32.939   +00 14 37.22  .08726 1.0743 154.8 21.9  44d   0
2020 10 23 23  03 24 20.396   +00 14 48.49  .08720 1.0743 154.9 21.9  44d   0
2020 10 24 00  03 24 07.832   +00 14 59.82  .08715 1.0743 155.0 21.9  45d   0
2020 10 24 01  03 23 55.248   +00 15 11.22  .08710 1.0742 155.1 21.9  45d   0
2020 10 24 02  03 23 42.642   +00 15 22.68  .08705 1.0742 155.1 21.8  45d   0
2020 10 24 03  03 23 30.016   +00 15 34.21  .08700 1.0742 155.2 21.8  45d   0
2020 10 24 04  03 23 17.368   +00 15 45.81  .08694 1.0742 155.3 21.8  45d   0
2020 10 24 05  03 23 04.700   +00 15 57.47  .08689 1.0742 155.4 21.8  45d   0
2020 10 24 06  03 22 52.011   +00 16 09.20  .08684 1.0742 155.4 21.8  45d   0
2020 10 24 07  03 22 39.301   +00 16 21.00  .08679 1.0742 155.5 21.8  45d   0
2020 10 24 08  03 22 26.571   +00 16 32.86  .08674 1.0741 155.6 21.8  45d   0
2020 10 24 09  03 22 13.820   +00 16 44.79  .08669 1.0741 155.7 21.8  45d   0
2020 10 24 10  03 22 01.048   +00 16 56.78  .08664 1.0741 155.7 21.8  45d   0
2020 10 24 11  03 21 48.256   +00 17 08.85  .08659 1.0741 155.8 21.8  45d   0
2020 10 24 12  03 21 35.442   +00 17 20.97  .08654 1.0741 155.9 21.8  45d   0
2020 10 24 13  03 21 22.609   +00 17 33.17  .08649 1.0741 156.0 21.8  45d   0
2020 10 24 14  03 21 09.755   +00 17 45.43  .08644 1.0741 156.0 21.8  45d   0
2020 10 24 15  03 20 56.880   +00 17 57.77  .08639 1.0740 156.1 21.8  45d   0
2020 10 24 16  03 20 43.985   +00 18 10.16  .08634 1.0740 156.2 21.8  45d   0
2020 10 24 17  03 20 31.069   +00 18 22.63  .08629 1.0740 156.3 21.8  45d   0
2020 10 24 18  03 20 18.133   +00 18 35.16  .08624 1.0740 156.3 21.8  45d   0
2020 10 24 19  03 20 05.177   +00 18 47.76  .08619 1.0740 156.4 21.8  45d   0